Change the Weather History Date:

Saturday, August 23, 2014

  Actual Average Record
Temperature  
Mean Temperature 83 °F -  
Max Temperature 89 °F - - ()
Min Temperature 77 °F - - ()
Cooling Degree Days 18    
Growing Degree Days 33 (Base 50)    
Moisture  
Dew Point 76 °F    
Average Humidity 76    
Maximum Humidity 94    
Minimum Humidity 62    
Precipitation  
Precipitation 0.00 in - - ()
Sea Level Pressure  
Sea Level Pressure 29.77 in    
Wind  
Wind Speed 5 mph ()    
Max Wind Speed 18 mph    
Max Gust Speed -    
Visibility 6.2 miles    
Events      
T = Trace of Precipitation, MM = Missing Value Source: Averaged Metar Reports

Daily Weather History Graph

Daily Weather History Graph

Search for Another Location

Airport or City:

Trip Planner

Search our weather history database for the weather conditions in past years. The results will help you decide how hot, cold, wet, or windy it might be!

Date:

Astronomy

Aug. 23, 2014 Rise Set
Actual Time 5:52 AM ICT 6:21 PM ICT
Civil Twilight 5:30 AM ICT 6:43 PM ICT
Nautical Twilight 5:05 AM ICT 7:08 PM ICT
Astronomical Twilight 4:39 AM ICT 7:34 PM ICT
Moon 3:49 AM ICT (8/23) 4:41 PM ICT (8/23)
Length of Visible Light 13h 12m
Length of Day
12h 28m
Waning Crescent, 5% of the Moon is Illuminated
Aug 23
Waning Crescent
Aug 25
New
Sep 2
First Quarter
Sep 9
Full
Sep 16
Last Quarter

Hourly Weather History & Observations

Time (ICT) Temp. Heat Index Dew Point Humidity Pressure Visibility Wind Dir Wind Speed Gust Speed Precip Events Conditions
12:00 AM 84.2 °F 96.1 °F 78.8 °F 84% 29.80 in 5.6 mi SE 5.8 mph - N/A   Partly Cloudy
12:30 AM 80.6 °F 86.2 °F 75.2 °F 84% 29.83 in 5.6 mi SW 18.4 mph - N/A   Partly Cloudy
1:00 AM 80.6 °F 86.2 °F 75.2 °F 84% 29.83 in 5.6 mi South 6.9 mph - N/A   Partly Cloudy
7:00 AM 77.0 °F - 75.2 °F 94% 29.80 in 6.2 mi North 3.5 mph - N/A   Scattered Clouds
7:30 AM 78.8 °F - 75.2 °F 89% 29.80 in 6.2 mi Variable 1.2 mph - N/A   Scattered Clouds
8:00 AM 78.8 °F - 75.2 °F 89% 29.83 in 6.2 mi NNW 5.8 mph - N/A   Scattered Clouds
8:30 AM 80.6 °F 86.2 °F 75.2 °F 84% 29.86 in 6.2 mi Variable 3.5 mph - N/A   Scattered Clouds
9:00 AM 80.6 °F 86.2 °F 75.2 °F 84% 29.86 in 6.2 mi North 4.6 mph - N/A   Scattered Clouds
9:30 AM 84.2 °F 92.3 °F 75.2 °F 74% 29.86 in 6.2 mi Variable 1.2 mph - N/A   Scattered Clouds
10:00 AM 86.0 °F 93.4 °F 73.4 °F 66% 29.86 in 6.2 mi Variable 2.3 mph - N/A   Scattered Clouds
10:30 AM 86.0 °F 95.1 °F 75.2 °F 70% 29.83 in 6.2 mi NNW 4.6 mph - N/A   Scattered Clouds
11:00 AM 86.0 °F 95.1 °F 75.2 °F 70% 29.83 in 6.2 mi NNW 5.8 mph - N/A   Scattered Clouds
11:30 AM 86.0 °F 95.1 °F 75.2 °F 70% 29.80 in 6.2 mi NW 6.9 mph - N/A   Scattered Clouds
12:00 PM 87.8 °F 97.6 °F 75.2 °F 66% 29.80 in 6.2 mi NNW 6.9 mph - N/A   Partly Cloudy
12:30 PM 87.8 °F 97.6 °F 75.2 °F 66% 29.80 in 6.2 mi NNW 5.8 mph - N/A   Partly Cloudy
1:00 PM 87.8 °F 97.6 °F 75.2 °F 66% 29.77 in 6.2 mi NW 4.6 mph - N/A   Partly Cloudy
1:30 PM 89.6 °F 99.8 °F 75.2 °F 62% 29.74 in 6.2 mi Variable 2.3 mph - N/A   Partly Cloudy
2:00 PM 89.6 °F 99.8 °F 75.2 °F 62% 29.74 in 6.2 mi Variable 2.3 mph - N/A   Partly Cloudy
2:30 PM 87.8 °F 99.7 °F 77.0 °F 70% 29.71 in 6.2 mi SW 6.9 mph - N/A   Scattered Clouds
3:00 PM 87.8 °F 99.7 °F 77.0 °F 70% 29.71 in 6.2 mi SW 5.8 mph - N/A   Scattered Clouds
3:30 PM 87.8 °F 99.7 °F 77.0 °F 70% 29.71 in 6.2 mi SW 5.8 mph - N/A   Scattered Clouds
4:00 PM 89.6 °F 102.2 °F 77.0 °F 66% 29.68 in 6.2 mi SW 4.6 mph - N/A   Scattered Clouds
4:30 PM 89.6 °F 99.8 °F 75.2 °F 62% 29.68 in 6.2 mi WNW 5.8 mph - N/A   Partly Cloudy
5:00 PM 89.6 °F 99.8 °F 75.2 °F 62% 29.71 in 6.2 mi West 8.1 mph - N/A   Partly Cloudy
5:30 PM 87.8 °F 95.6 °F 73.4 °F 62% 29.71 in 6.2 mi WNW 5.8 mph - N/A   Partly Cloudy
6:00 PM 87.8 °F 97.6 °F 75.2 °F 66% 29.71 in 6.2 mi West 4.6 mph - N/A   Partly Cloudy
6:30 PM 86.0 °F 96.9 °F 77.0 °F 74% 29.71 in 6.2 mi Variable 2.3 mph - N/A   Partly Cloudy
7:00 PM 86.0 °F 96.9 °F 77.0 °F 74% 29.71 in 6.2 mi Variable 2.3 mph - N/A   Partly Cloudy
7:30 PM 84.2 °F 94.1 °F 77.0 °F 79% 29.71 in 6.2 mi Variable 2.3 mph - N/A   Partly Cloudy
8:00 PM 84.2 °F 96.1 °F 78.8 °F 84% 29.74 in 6.2 mi Variable 2.3 mph - N/A   Partly Cloudy
8:30 PM 84.2 °F 96.1 °F 78.8 °F 84% 29.77 in 6.2 mi NNE 4.6 mph - N/A   Partly Cloudy
9:00 PM 82.4 °F 92.4 °F 78.8 °F 89% 29.77 in 6.2 mi NNE 3.5 mph - N/A   Partly Cloudy
9:30 PM 82.4 °F 90.9 °F 77.0 °F 84% 29.80 in 6.2 mi Variable 3.5 mph - N/A   Partly Cloudy
10:00 PM 82.4 °F 90.9 °F 77.0 °F 84% 29.80 in 6.2 mi Variable 3.5 mph - N/A   Scattered Clouds
10:30 PM 82.4 °F 90.9 °F 77.0 °F 84% 29.80 in 6.2 mi Variable 3.5 mph - N/A   Scattered Clouds
11:00 PM 82.4 °F 90.9 °F 77.0 °F 84% 29.80 in 6.2 mi Variable 1.2 mph - N/A   Scattered Clouds
11:30 PM 82.4 °F 90.9 °F 77.0 °F 84% 29.80 in 6.2 mi Variable 1.2 mph - N/A   Scattered Clouds